Weather History for Blacksburg, VA

Change the Weather History Date:

Thursday, October 4, 2012

  Actual Average Record
Temperature  
Mean Temperature 62 °F 56 °F  
Max Temperature 73 °F 69 °F 85 °F (1954)
Min Temperature 50 °F 43 °F 20 °F (1974)
Degree Days  
Heating Degree Days 3 9  
Month to date heating degree days 17 35  
Since 1 July heating degree days 123 166  
Cooling Degree Days 0 0  
Month to date cooling degree days 2 1  
Year to date cooling degree days 716 570  
Growing Degree Days 12 (Base 50)    
Moisture  
Dew Point 59 °F    
Average Humidity 77    
Maximum Humidity 100    
Minimum Humidity 53    
Precipitation  
Precipitation T in 0.09 in 0.91 in (1962)
Month to date precipitation 0.65 0.36  
Year to date precipitation 31.97 32.65  
Snow  
Snow 0.00 in - - ()
Month to date snowfall 0.0  
Since 1 July snowfall T  
Since 1 September snowfall 0.0  
Snow Depth 0.00 in    
Sea Level Pressure  
Sea Level Pressure 30.27 in    
Wind  
Wind Speed 3 mph (WNW)    
Max Wind Speed 10 mph    
Max Gust Speed 16 mph    
Visibility 10 miles    
Events Rain    
T = Trace of Precipitation, MM = Missing Value Source: NWS Daily Summary

Daily Weather History Graph

Daily Weather History Graph

Search for Another Location

Airport:

Trip Planner

Search our weather history database for the weather conditions in past years. The results will help you decide how hot, cold, wet, or windy it might be!

Date:

Astronomy

Oct. 04, 2012 Rise Set
Actual Time 7:20 AM EDT 6:59 PM EDT
Civil Twilight 6:54 AM EDT 7:25 PM EDT
Nautical Twilight 6:23 AM EDT 7:55 PM EDT
Astronomical Twilight 5:53 AM EDT 8:26 PM EDT
Moon 9:40 PM EDT (10/4) 11:29 AM EDT (10/4)
Length of Visible Light 12h 31m
Length of Day
11h 39m
Waning Gibbous, 82% of the Moon is Illuminated
Oct 4
Waning Gibbous
Oct 8
Last Quarter
Oct 15
New
Oct 21
First Quarter
Oct 29
Full

Hourly Weather History & Observations

Time (EDT) Temp. Dew Point Humidity Pressure Visibility Wind Dir Wind Speed Gust Speed Precip Events Conditions
12:15 AM 64.4 °F 62.6 °F 94% 30.24 in 10.0 mi Calm Calm - N/A   Light Drizzle
12:35 AM 64.4 °F 62.6 °F 94% 30.24 in 10.0 mi Calm Calm - N/A Rain Light Rain
12:55 AM 64.4 °F 62.6 °F 94% 30.25 in 10.0 mi Calm Calm - N/A Rain Light Rain
1:15 AM 64.4 °F 64.4 °F 100% 30.24 in 10.0 mi Calm Calm - N/A   Scattered Clouds
1:35 AM 62.6 °F 62.6 °F 100% 30.25 in 10.0 mi Calm Calm - N/A   Clear
1:55 AM 62.6 °F 62.6 °F 100% 30.25 in 10.0 mi Calm Calm - N/A   Clear
2:15 AM 64.4 °F 64.4 °F 100% 30.24 in 10.0 mi Calm Calm - N/A   Clear
2:35 AM 64.4 °F 64.4 °F 100% 30.25 in 10.0 mi Calm Calm - N/A   Clear
2:55 AM 62.6 °F 62.6 °F 100% 30.24 in 10.0 mi Calm Calm - N/A   Clear
3:15 AM 62.6 °F 62.6 °F 100% 30.24 in 10.0 mi Calm Calm - N/A   Clear
3:35 AM 62.6 °F 62.6 °F 100% 30.24 in 10.0 mi Calm Calm - N/A   Clear
3:55 AM 62.6 °F 62.6 °F 100% 30.24 in 10.0 mi Calm Calm - N/A   Clear
4:15 AM 62.6 °F 62.6 °F 100% 30.24 in 7.0 mi WSW 3.5 mph - N/A   Clear
4:35 AM 62.6 °F 62.6 °F 100% 30.24 in 10.0 mi Calm Calm - N/A   Clear
4:55 AM 62.6 °F 62.6 °F 100% 30.24 in 7.0 mi Calm Calm - N/A   Clear
5:15 AM 62.6 °F 62.6 °F 100% 30.25 in 7.0 mi Calm Calm - N/A   Clear
5:35 AM 62.6 °F 62.6 °F 100% 30.25 in 10.0 mi Calm Calm - N/A   Clear
5:55 AM 62.6 °F 62.6 °F 100% 30.25 in 10.0 mi Calm Calm - N/A   Clear
6:15 AM 62.6 °F 62.6 °F 100% 30.25 in 7.0 mi Calm Calm - N/A   Clear
6:35 AM 62.6 °F 62.6 °F 100% 30.26 in 7.0 mi Calm Calm - N/A   Clear
6:55 AM 62.6 °F 62.6 °F 100% 30.26 in 7.0 mi Calm Calm - N/A   Clear
7:15 AM 62.6 °F 62.6 °F 100% 30.27 in 5.0 mi Calm Calm - N/A   Clear
7:35 AM 62.6 °F 62.6 °F 100% 30.28 in 7.0 mi Calm Calm - N/A   Clear
7:55 AM 62.6 °F 62.6 °F 100% 30.28 in 10.0 mi Calm Calm - N/A   Clear
8:15 AM 62.6 °F 62.6 °F 100% 30.28 in 10.0 mi Calm Calm - N/A   Clear
8:35 AM 62.6 °F 62.6 °F 100% 30.29 in 10.0 mi West 3.5 mph - N/A   Clear
8:55 AM 62.6 °F 62.6 °F 100% 30.29 in 10.0 mi West 3.5 mph - N/A   Clear
9:15 AM 62.6 °F 62.6 °F 100% 30.30 in 10.0 mi Calm Calm - N/A   Clear
9:35 AM 64.4 °F 64.4 °F 100% 30.30 in 10.0 mi West 3.5 mph - N/A   Clear
9:55 AM 64.4 °F 62.6 °F 94% 30.31 in 10.0 mi West 3.5 mph - N/A   Clear
10:15 AM 64.4 °F 62.6 °F 94% 30.31 in 10.0 mi West 4.6 mph - N/A   Clear
10:35 AM 66.2 °F 60.8 °F 83% 30.31 in 10.0 mi WNW 4.6 mph - N/A   Clear
10:55 AM 66.2 °F 60.8 °F 83% 30.31 in 10.0 mi WNW 4.6 mph - N/A   Clear
11:15 AM 66.2 °F 60.8 °F 83% 30.31 in 10.0 mi WNW 4.6 mph - N/A   Clear
11:35 AM 66.2 °F 60.8 °F 83% 30.31 in 10.0 mi WNW 4.6 mph - N/A   Clear
11:55 AM 69.8 °F 59.0 °F 68% 30.31 in 10.0 mi WNW 9.2 mph - N/A   Clear
12:15 PM 71.6 °F 59.0 °F 64% 30.31 in 10.0 mi WNW 11.5 mph 16.1 mph N/A   Scattered Clouds
12:35 PM 71.6 °F 59.0 °F 64% 30.30 in 10.0 mi WNW 8.1 mph - N/A   Scattered Clouds
12:55 PM 69.8 °F 57.2 °F 64% 30.30 in 10.0 mi NW 9.2 mph - N/A   Scattered Clouds
1:15 PM 69.8 °F 57.2 °F 64% 30.29 in 10.0 mi NW 8.1 mph - N/A   Scattered Clouds
1:35 PM 71.6 °F 57.2 °F 60% 30.28 in 10.0 mi WNW 5.8 mph 17.3 mph N/A   Scattered Clouds
1:55 PM 73.4 °F 57.2 °F 57% 30.28 in 10.0 mi WNW 10.4 mph - N/A   Clear
2:35 PM 73.4 °F 57.2 °F 57% 30.27 in 10.0 mi WNW 9.2 mph - N/A   Clear
2:55 PM 73.4 °F 57.2 °F 57% 30.27 in 10.0 mi WNW 9.2 mph - N/A   Scattered Clouds
3:15 PM 73.4 °F 55.4 °F 53% 30.26 in 10.0 mi WNW 8.1 mph - N/A   Clear
3:35 PM 73.4 °F 55.4 °F 53% 30.26 in 10.0 mi NW 8.1 mph 16.1 mph N/A   Clear
3:55 PM 73.4 °F 55.4 °F 53% 30.26 in 10.0 mi WNW 8.1 mph 16.1 mph N/A   Clear
4:15 PM 71.6 °F 55.4 °F 57% 30.25 in 10.0 mi WNW 8.1 mph 16.1 mph N/A   Scattered Clouds
4:35 PM 73.4 °F 55.4 °F 53% 30.25 in 10.0 mi WNW 10.4 mph - N/A   Clear
4:55 PM 73.4 °F 57.2 °F 57% 30.25 in 10.0 mi WNW 8.1 mph - N/A   Scattered Clouds
5:15 PM 71.6 °F 55.4 °F 57% 30.26 in 10.0 mi West 4.6 mph - N/A   Scattered Clouds
5:35 PM 71.6 °F 55.4 °F 57% 30.25 in 10.0 mi WNW 5.8 mph - N/A   Clear
5:55 PM 71.6 °F 55.4 °F 57% 30.25 in 10.0 mi WNW 4.6 mph - N/A   Clear
6:15 PM 69.8 °F 55.4 °F 60% 30.25 in 10.0 mi WNW 5.8 mph - N/A   Clear
6:55 PM 66.2 °F 55.4 °F 68% 30.26 in 10.0 mi WNW 5.8 mph - N/A   Clear
7:15 PM 66.2 °F 55.4 °F 68% 30.26 in 10.0 mi West 4.6 mph - N/A   Clear
7:35 PM 60.8 °F 55.4 °F 82% 30.26 in 10.0 mi Calm Calm - N/A   Clear
7:55 PM 59.0 °F 55.4 °F 88% 30.26 in 10.0 mi Calm Calm - N/A   Clear
8:15 PM 57.2 °F 55.4 °F 94% 30.26 in 10.0 mi Calm Calm - N/A   Clear
8:35 PM 57.2 °F 55.4 °F 94% 30.27 in 10.0 mi Calm Calm - N/A   Clear
8:55 PM 57.2 °F 55.4 °F 94% 30.27 in 10.0 mi Calm Calm - N/A   Clear
9:15 PM 55.4 °F 55.4 °F 100% 30.27 in 10.0 mi Calm Calm - N/A   Clear
9:35 PM 55.4 °F 55.4 °F 100% 30.28 in 10.0 mi Calm Calm - N/A   Clear
9:55 PM 55.4 °F 55.4 °F 100% 30.28 in 10.0 mi Calm Calm - N/A   Clear
10:15 PM 55.4 °F 55.4 °F 100% 30.28 in 10.0 mi Calm Calm - N/A   Clear
10:35 PM 53.6 °F 53.6 °F 100% 30.28 in 10.0 mi Calm Calm - N/A   Clear
10:55 PM 53.6 °F 53.6 °F 100% 30.29 in 10.0 mi Calm Calm - N/A   Clear
11:15 PM 53.6 °F 53.6 °F 100% 30.29 in 10.0 mi Calm Calm - N/A   Clear
11:35 PM 51.8 °F 51.8 °F 100% 30.29 in 10.0 mi Calm Calm - N/A   Clear
11:55 PM 51.8 °F 51.8 °F 100% 30.29 in 10.0 mi Calm Calm - N/A   Clear